When you browse on this site, cookies collect data to enhance your experience and personalize the content and advertising you see.
Visit our Privacy Policy to learn more. By continuing to use the site, you agree to this use of cookies and data.
  • In Czech Republic
  • List of Countries
  • For 7 days
  • Water Temperature
  • Weather Map
  • Weather Widgets
  • user-avatar
    Login

    Hourly Weather Sidi Bu-l-Abbas

    Today, 18 February, Tuesday

    Time Temperature Precipitation Wind Pressure Humidity
    00:00 +11°C° 0 mm 0 mps 727 mmHg 78%
    01:00 +11°C° 0 mm 0 mps 726 mmHg 78%
    02:00 +10°C° 0 mm 0 mps 726 mmHg 78%
    03:00 +10°C° 0 mm 0 mps 726 mmHg 78%
    04:00 +9°C° 0 mm 0 mps 726 mmHg 79%
    05:00 +9°C° 0 mm 0 mps 726 mmHg 79%
    06:00 +9°C° 0 mm 0 mps 726 mmHg 80%
    07:00 +11°C° 0 mm 0 mps 727 mmHg 71%
    08:00 +13°C° 0 mm 0 mps 727 mmHg 61%
    09:00 +18°C° 0 mm 1 mps 728 mmHg 52%
    10:00 +19°C° 0 mm 1 mps 728 mmHg 47%
    11:00 +20°C° 0 mm 1 mps 728 mmHg 42%
    12:00 +21°C° 0 mm 1 mps 728 mmHg 37%
    13:00 +20°C° 0 mm 2 mps 727 mmHg 38%
    14:00 +20°C° 0 mm 3 mps 727 mmHg 40%
    15:00 +20°C° 0 mm 4 mps 727 mmHg 41%
    16:00 +18°C° 0 mm 3 mps 727 mmHg 52%
    17:00 +17°C° 0 mm 3 mps 726 mmHg 64%
    18:00 +15°C° 0 mm 2 mps 726 mmHg 75%
    19:00 +14°C° 0 mm 2 mps 727 mmHg 79%
    20:00 +13°C° 0 mm 1 mps 727 mmHg 84%
    21:00 +12°C° 0 mm 1 mps 727 mmHg 88%
    22:00 +12°C° 0 mm 1 mps 727 mmHg 89%
    23:00 +12°C° 0 mm 1 mps 727 mmHg 90%

    Tomorrow, 19 February, Wednesday

    Time Temperature Precipitation Wind Pressure Humidity
    00:00 +11°C° 0 mm 1 mps 727 mmHg 90%
    01:00 +11°C° 0 mm 1 mps 727 mmHg 92%
    02:00 +11°C° 0 mm 1 mps 726 mmHg 93%
    03:00 +11°C° 0 mm 1 mps 726 mmHg 94%
    04:00 +11°C° 0 mm 1 mps 726 mmHg 94%
    05:00 +11°C° 0 mm 1 mps 726 mmHg 94%
    06:00 +11°C° 0 mm 1 mps 726 mmHg 94%
    07:00 +12°C° 0 mm 1 mps 727 mmHg 91%
    08:00 +12°C° 0 mm 1 mps 727 mmHg 88%
    09:00 +13°C° 0 mm 1 mps 728 mmHg 85%
    10:00 +14°C° 0 mm 1 mps 728 mmHg 77%
    11:00 +15°C° 0 mm 1 mps 728 mmHg 70%
    12:00 +16°C° 0 mm 1 mps 728 mmHg 62%
    13:00 +18°C° 0 mm 1 mps 727 mmHg 59%
    14:00 +18°C° 0 mm 2 mps 727 mmHg 55%
    15:00 +19°C° 0 mm 3 mps 726 mmHg 51%
    16:00 +17°C° 0 mm 3 mps 726 mmHg 60%
    17:00 +16°C° 0 mm 3 mps 726 mmHg 70%
    18:00 +13°C° 0 mm 3 mps 725 mmHg 79%
    19:00 +12°C° 0 mm 3 mps 726 mmHg 83%
    20:00 +13°C° 0 mm 2 mps 726 mmHg 88%
    21:00 +12°C° 0 mm 1 mps 726 mmHg 92%
    22:00 +12°C° 0 mm 1 mps 726 mmHg 92%
    23:00 +11°C° 0 mm 1 mps 725 mmHg 91%

    Day after tomorrow, 20 February, Thursday

    Time Temperature Precipitation Wind Pressure Humidity
    00:00 +11°C° 0 mm 1 mps 725 mmHg 91%
    01:00 +11°C° 0 mm 1 mps 725 mmHg 90%
    02:00 +11°C° 0 mm 1 mps 724 mmHg 90%
    03:00 +11°C° 0 mm 1 mps 724 mmHg 89%
    04:00 +10°C° 0 mm 1 mps 723 mmHg 88%
    05:00 +10°C° 0 mm 1 mps 723 mmHg 88%
    06:00 +10°C° 0 mm 1 mps 723 mmHg 87%
    07:00 +12°C° 0 mm 1 mps 723 mmHg 78%
    08:00 +14°C° 0 mm 2 mps 723 mmHg 70%
    09:00 +16°C° 0 mm 2 mps 724 mmHg 62%
    10:00 +17°C° 0 mm 2 mps 724 mmHg 54%
    11:00 +19°C° 0 mm 2 mps 724 mmHg 47%
    12:00 +22°C° 0 mm 1 mps 723 mmHg 39%
    13:00 +21°C° 0 mm 2 mps 723 mmHg 40%
    14:00 +21°C° 0 mm 2 mps 723 mmHg 41%
    15:00 +21°C° 0 mm 3 mps 722 mmHg 42%
    16:00 +19°C° 0 mm 2 mps 722 mmHg 51%
    17:00 +18°C° 0 mm 2 mps 722 mmHg 61%
    18:00 +16°C° 0 mm 2 mps 722 mmHg 70%
    19:00 +15°C° 0 mm 1 mps 722 mmHg 72%
    20:00 +14°C° 0 mm 1 mps 722 mmHg 74%
    21:00 +14°C° 0 mm 1 mps 723 mmHg 76%
    22:00 +13°C° 0 mm 1 mps 723 mmHg 77%
    23:00 +13°C° 0 mm 1 mps 723 mmHg 79%

    21 February, Friday

    Time Temperature Precipitation Wind Pressure Humidity
    00:00 +12°C° 0 mm 1 mps 723 mmHg 80%
    01:00 +11°C° 0 mm 0 mps 723 mmHg 81%
    02:00 +10°C° 0 mm 0 mps 723 mmHg 83%
    03:00 +10°C° 0 mm 0 mps 723 mmHg 84%
    04:00 +10°C° 0 mm 0 mps 723 mmHg 85%
    05:00 +9°C° 0 mm 0 mps 723 mmHg 85%
    06:00 +9°C° 0 mm 0 mps 724 mmHg 86%
    13:00 +17°C° 0 mm 3 mps 726 mmHg 70%
    14:00 +17°C° 0 mm 3 mps 726 mmHg 70%
    15:00 +17°C° 0 mm 4 mps 726 mmHg 71%
    16:00 +16°C° 0 mm 3 mps 726 mmHg 76%
    17:00 +14°C° 0 mm 3 mps 726 mmHg 82%
    18:00 +13°C° 0 mm 3 mps 726 mmHg 88%
    19:00 +13°C° 0 mm 2 mps 726 mmHg 90%
    20:00 +13°C° 0 mm 2 mps 727 mmHg 91%
    21:00 +12°C° 0 mm 1 mps 727 mmHg 93%
    22:00 +12°C° 0 mm 1 mps 727 mmHg 93%
    23:00 +12°C° 0 mm 1 mps 727 mmHg 94%

    22 February, Saturday

    Time Temperature Precipitation Wind Pressure Humidity
    00:00 +11°C° 0 mm 1 mps 727 mmHg 94%
    01:00 +11°C° 0 mm 1 mps 727 mmHg 94%
    02:00 +11°C° 0 mm 1 mps 727 mmHg 94%
    03:00 +11°C° 0 mm 1 mps 727 mmHg 94%
    04:00 +11°C° 0 mm 0 mps 727 mmHg 93%
    05:00 +11°C° 0 mm 0 mps 727 mmHg 93%
    06:00 +11°C° 0 mm 0 mps 728 mmHg 92%
    07:00 +13°C° 0 mm 1 mps 728 mmHg 88%
    08:00 +13°C° 0 mm 1 mps 729 mmHg 84%
    09:00 +14°C° 0 mm 1 mps 729 mmHg 80%
    10:00 +16°C° 0 mm 1 mps 729 mmHg 72%
    11:00 +17°C° 0 mm 2 mps 729 mmHg 65%
    12:00 +19°C° 0 mm 2 mps 729 mmHg 58%
    13:00 +19°C° 0 mm 3 mps 729 mmHg 57%
    14:00 +19°C° 0 mm 4 mps 729 mmHg 57%
    15:00 +20°C° 0 mm 5 mps 729 mmHg 56%
    16:00 +18°C° 0 mm 4 mps 729 mmHg 64%
    17:00 +17°C° 0 mm 3 mps 729 mmHg 72%
    18:00 +14°C° 0 mm 3 mps 729 mmHg 79%
    19:00 +14°C° 0 mm 2 mps 729 mmHg 82%
    20:00 +14°C° 0 mm 2 mps 729 mmHg 85%
    21:00 +13°C° 0 mm 1 mps 729 mmHg 89%
    22:00 +13°C° 0 mm 1 mps 729 mmHg 88%
    23:00 +13°C° 0 mm 1 mps 729 mmHg 88%

    23 February, Sunday

    Time Temperature Precipitation Wind Pressure Humidity
    00:00 +12°C° 0 mm 1 mps 729 mmHg 88%
    01:00 +12°C° 0 mm 1 mps 729 mmHg 86%
    02:00 +12°C° 0 mm 1 mps 729 mmHg 84%
    03:00 +12°C° 0 mm 1 mps 729 mmHg 83%
    04:00 +12°C° 0 mm 2 mps 729 mmHg 80%
    05:00 +12°C° 0 mm 2 mps 729 mmHg 77%
    06:00 +12°C° 0 mm 2 mps 729 mmHg 74%
    07:00 +14°C° 0 mm 2 mps 730 mmHg 65%
    08:00 +15°C° 0 mm 2 mps 730 mmHg 56%
    09:00 +17°C° 0 mm 2 mps 731 mmHg 48%
    10:00 +19°C° 0 mm 2 mps 731 mmHg 41%
    11:00 +21°C° 0 mm 2 mps 731 mmHg 35%
    12:00 +23°C° 0 mm 2 mps 731 mmHg 28%
    13:00 +24°C° 0 mm 2 mps 731 mmHg 27%
    14:00 +24°C° 0 mm 3 mps 730 mmHg 26%
    15:00 +25°C° 0 mm 3 mps 730 mmHg 25%
    16:00 +21°C° 0 mm 3 mps 729 mmHg 33%
    17:00 +19°C° 0 mm 3 mps 729 mmHg 41%
    18:00 +17°C° 0 mm 3 mps 729 mmHg 49%
    19:00 +16°C° 0 mm 3 mps 729 mmHg 49%
    20:00 +16°C° 0 mm 3 mps 729 mmHg 48%
    21:00 +14°C° 0 mm 3 mps 729 mmHg 48%
    22:00 +14°C° 0 mm 3 mps 729 mmHg 45%
    23:00 +14°C° 0 mm 3 mps 729 mmHg 42%
    Show more